Location: Baix
(44.7118°N, 4.7648°E)
Time: 00:13:58
(UTC+00:00)

Vanguard 1 Rocket - Pass Details

Date: 10 October 2022
Orbit: 650 x 4225 km, 34.3° (Epoch: 05 December)

Event Time Altitude Azimuth Distance (km) Brightness Sun altitude
Rises 17:22:38 0° 236° (SW) 8,405 13.6 -3.9°
Reaches altitude 10° 17:28:41 10° 233° (SW) 7,426 13.1 -4.9°
Maximum altitude 17:52:48 54° 165° (SSE) 3,979 10.5 -9.2°
Enters shadow 18:07:11 13° 96° (E) 4,822 10.4 -11.8°
